Weather History for Pensacola, FL

Change the Weather History Date:

Monday, April 29, 2013

  Actual Average Record
Temperature  
Mean Temperature 74 °F 70 °F  
Max Temperature 81 °F 79 °F 93 °F (1952)
Min Temperature 67 °F 61 °F 44 °F (1992)
Degree Days  
Heating Degree Days 0 0  
Month to date heating degree days 29 51  
Since 1 July heating degree days 1167 1535  
Cooling Degree Days 9 6  
Month to date cooling degree days 106 96  
Year to date cooling degree days 161 143  
Growing Degree Days 23 (Base 50)    
Moisture  
Dew Point 64 °F    
Average Humidity 76    
Maximum Humidity 93    
Minimum Humidity 58    
Precipitation  
Precipitation 0.19 in 0.13 in 3.06 in (1918)
Month to date precipitation 4.60 4.20  
Year to date precipitation 20.42 19.70  
Sea Level Pressure  
Sea Level Pressure 29.95 in    
Wind  
Wind Speed 5 mph (ESE)    
Max Wind Speed 18 mph    
Max Gust Speed 23 mph    
Visibility 9 miles    
Events Rain    
T = Trace of Precipitation, MM = Missing Value Source: NWS Daily Summary

Daily Weather History Graph

Daily Weather History Graph

Search for Another Location

Airport:

Trip Planner

Search our weather history database for the weather conditions in past years. The results will help you decide how hot, cold, wet, or windy it might be!

Date:

Astronomy

Apr. 29, 2013 Rise Set
Actual Time 6:06 AM CDT 7:25 PM CDT
Civil Twilight 5:41 AM CDT 7:51 PM CDT
Nautical Twilight 5:11 AM CDT 8:21 PM CDT
Astronomical Twilight 4:39 AM CDT 8:52 PM CDT
Moon 11:44 PM CDT (4/29) 9:33 AM CDT (4/29)
Length of Visible Light 14h 09m
Length of Day
13h 18m
Waning Gibbous, 80% of the Moon is Illuminated
Apr 29
Waning Gibbous
May 2
Last Quarter
May 9
New
May 17
First Quarter
May 24
Full

Hourly Weather History & Observations

Time (CDT) Temp. Heat Index Dew Point Humidity Pressure Visibility Wind Dir Wind Speed Gust Speed Precip Events Conditions
12:53 AM 70.0 °F - 61.0 °F 73% 29.98 in 10.0 mi East 3.5 mph - N/A   Clear
1:53 AM 70.0 °F - 62.1 °F 76% 29.96 in 10.0 mi Calm Calm - N/A   Clear
2:53 AM 70.0 °F - 62.1 °F 76% 29.96 in 10.0 mi Calm Calm - N/A   Partly Cloudy
3:53 AM 69.1 °F - 63.0 °F 81% 29.95 in 10.0 mi Calm Calm - N/A   Partly Cloudy
4:53 AM 70.0 °F - 64.9 °F 84% 29.93 in 10.0 mi ESE 6.9 mph - N/A   Mostly Cloudy
5:53 AM 70.0 °F - 66.0 °F 87% 29.95 in 10.0 mi Calm Calm - N/A   Mostly Cloudy
6:02 AM 69.8 °F - 66.2 °F 88% 29.94 in 10.0 mi NNE 3.5 mph - N/A   Overcast
6:44 AM 69.8 °F - 64.4 °F 83% 29.96 in 10.0 mi North 5.8 mph - N/A   Overcast
6:53 AM 68.0 °F - 63.0 °F 84% 29.97 in 10.0 mi North 6.9 mph - N/A   Overcast
7:53 AM 68.0 °F - 63.0 °F 84% 29.99 in 10.0 mi NNE 6.9 mph - 0.01 in   Scattered Clouds
8:53 AM 69.1 °F - 63.0 °F 81% 30.00 in 10.0 mi NNE 4.6 mph - N/A   Mostly Cloudy
9:53 AM 73.0 °F - 64.9 °F 76% 30.00 in 10.0 mi NNE 3.5 mph - N/A   Partly Cloudy
10:53 AM 78.1 °F - 66.0 °F 66% 30.00 in 10.0 mi Variable 4.6 mph - N/A   Mostly Cloudy
11:53 AM 80.1 °F 81.7 °F 64.0 °F 58% 29.98 in 10.0 mi ESE 8.1 mph - N/A   Mostly Cloudy
12:53 PM 78.1 °F - 63.0 °F 60% 29.97 in 10.0 mi SE 8.1 mph - N/A   Mostly Cloudy
1:46 PM 71.6 °F - 66.2 °F 83% 29.95 in 2.5 mi Calm Calm - 0.11 in Rain Rain
1:53 PM 73.0 °F - 66.0 °F 79% 29.96 in 7.0 mi Calm Calm - 0.12 in Rain Light Rain
2:53 PM 73.0 °F - 66.0 °F 79% 29.94 in 2.5 mi NW 6.9 mph - 0.06 in Rain Rain
3:01 PM 71.6 °F - 66.2 °F 83% 29.93 in 6.0 mi WSW 5.8 mph - 0.01 in Rain Light Rain
3:53 PM 77.0 °F - 60.1 °F 56% 29.93 in 6.0 mi South 6.9 mph - 0.01 in   Haze
4:53 PM 77.0 °F - 66.9 °F 71% 29.92 in 10.0 mi SSE 17.3 mph - N/A   Scattered Clouds
5:53 PM 75.0 °F - 64.0 °F 69% 29.92 in 10.0 mi South 8.1 mph - N/A   Clear
6:53 PM 75.0 °F - 63.0 °F 66% 29.92 in 10.0 mi Calm Calm - N/A   Clear
7:53 PM 71.1 °F - 64.9 °F 81% 29.92 in 10.0 mi South 4.6 mph - N/A   Partly Cloudy
8:53 PM 69.1 °F - 66.0 °F 90% 29.93 in 10.0 mi South 4.6 mph - N/A   Clear
9:53 PM 68.0 °F - 64.9 °F 90% 29.95 in 10.0 mi Calm Calm - 0.01 in   Clear
10:53 PM 66.9 °F - 64.0 °F 90% 29.95 in 10.0 mi Calm Calm - 0.02 in   Clear
11:53 PM 69.1 °F - 66.0 °F 90% 29.95 in 10.0 mi SE 3.5 mph - N/A   Partly Cloudy